{"data":{"norad_id":57445,"epoch":"2026-09-20T07:25:50.548512Z","epoch_age_seconds":144022,"freshness":"FRESH","line1":"1 57445U 23105R   26263.30961283  .00000474  00000+0  26752-4 0  9997","line2":"2 57445  43.0011 240.9751 0001036 272.3767  87.6966 15.27579324175187","mean_motion":15.27579324,"eccentricity":0.0001036,"inclination_deg":43.0011,"raan_deg":240.9751,"arg_perigee_deg":272.3767,"mean_anomaly_deg":87.6966,"bstar":2.6752e-5,"rev_number":17518,"period_min":94.266790429536,"perigee_km":482.34030113833,"apogee_km":483.76193931684,"semimajor_km":6861.1881202276,"source":"CELESTRAK","updated_at":"2026-09-21T09:00:33.627346Z"}}